Terminal Aerodrome Forecast
Issued by NWS Cleveland, OH

Home | Current Version | Previous Version | Text Only | Print | Product List | Glossary Off
Versions: 1 2 3 4 5 6 7 8 9 10 11 12 13 14 15 16 17 18 19 20

800
FTUS41 KCLE 201133
TAFMFD
TAF
KMFD 201133Z 2012/2112 05008KT 6SM BR SCT007 BKN020
     FM201800 08008KT P6SM BKN035
     FM210500 14008KT 6SM -SHRA VCTS BKN035CB=

USA.gov is the U.S. government's official web portal to all federal, state and local government web resources and services.